{"data":{"norad_id":63027,"intl_designator":"2025-033B","name":"GLOBAL-31","alt_names":[],"object_type":"PAYLOAD","status":"ACTIVE","operator":null,"country":"US","launch_date":"2025-02-18","launch_site_code":"RLLB","launch_vehicle":null,"mission":null,"orbit_class":"UNKNOWN","rcs_meters":null,"size_class":null,"mass_kg":null,"dimensions":null,"purposes":[],"wikipedia_slug":null,"has_3d_model":false,"image_url":null,"decayed_at":null,"tle_current":{"epoch":"2026-09-22T14:02:36.630816Z","epoch_age_seconds":133286,"freshness":"FRESH","line1":"1 63027U 25033B   26265.58514619  .00007697  00000+0  21110-3 0  9997","line2":"2 63027  58.9973 282.5044 0014452 111.9085 248.3529 15.38159396 89311","mean_motion":15.38159396,"eccentricity":0.0014452,"inclination_deg":58.9973,"raan_deg":282.5044,"arg_perigee_deg":111.9085,"mean_anomaly_deg":248.3529,"bstar":0.0002111,"rev_number":8931,"period_min":93.618385958226,"perigee_km":441.68202021693,"apogee_km":461.42255413258,"semimajor_km":6829.6892871748,"source":"CELESTRAK","updated_at":"2026-09-23T09:00:21.779520Z"}}}